HAZ8822 ZSYT-ZSHC

Flight info

Callsign HAZ8822
Flight time 1h 27m
Altitude 30100
Route P449 H101 FD W174 TAO H128 URBAD W172 LATUX W108 MATNU W115 PINOT B221 SUPAR
Aircraft A320/M-SDE3FGHIRWY/LB1

Departure

Time 2026-05-05 06:28
Airport Yantai Penglai International Airport (ZSYT)

Arrival

Time 2026-05-05 07:55
Airport Hangzhou Xiaoshan International Airport (ZSHC)
Time Latitude Longitude Altitude Speed Heading
2026-05-05 05:47 37.65599 120.98105 160 ft 0 kts 182°
2026-05-05 06:07 37.65611 120.98106 159 ft 3 kts 186°
2026-05-05 06:08 37.65632 120.98110 159 ft 3 kts 194°
2026-05-05 06:08 37.65653 120.98118 159 ft 3 kts 202°
2026-05-05 06:08 37.65673 120.98129 159 ft 3 kts 210°
2026-05-05 06:08 37.65691 120.98143 159 ft 3 kts 217°
2026-05-05 06:09 37.65708 120.98161 159 ft 3 kts 223°
2026-05-05 06:09 37.65723 120.98180 159 ft 3 kts 225°
2026-05-05 06:09 37.65732 120.98191 159 ft 0 kts 223°
2026-05-05 06:11 37.65732 120.98190 159 ft 0 kts 223°
2026-05-05 06:11 37.65722 120.98179 159 ft 4 kts 224°
2026-05-05 06:12 37.65710 120.98130 159 ft 8 kts 282°
2026-05-05 06:12 37.65748 120.98061 159 ft 10 kts 313°
2026-05-05 06:12 37.65791 120.98000 159 ft 10 kts 311°
2026-05-05 06:12 37.65846 120.97971 160 ft 8 kts 16°
2026-05-05 06:13 37.65886 120.98010 160 ft 8 kts 42°
2026-05-05 06:13 37.65938 120.98070 160 ft 12 kts 42°
2026-05-05 06:13 37.66001 120.98142 160 ft 12 kts 42°
2026-05-05 06:13 37.66057 120.98207 160 ft 10 kts 42°
2026-05-05 06:14 37.66110 120.98268 160 ft 12 kts 43°
2026-05-05 06:14 37.66180 120.98347 160 ft 13 kts 41°
2026-05-05 06:14 37.66245 120.98422 160 ft 12 kts 43°
2026-05-05 06:14 37.66304 120.98488 160 ft 11 kts 42°
2026-05-05 06:15 37.66354 120.98546 159 ft 9 kts 42°
2026-05-05 06:15 37.66405 120.98603 159 ft 12 kts 42°
2026-05-05 06:15 37.66480 120.98689 159 ft 16 kts 42°
2026-05-05 06:15 37.66569 120.98790 160 ft 17 kts 42°
2026-05-05 06:16 37.66652 120.98885 160 ft 15 kts 42°
2026-05-05 06:16 37.66727 120.98970 160 ft 14 kts 42°
2026-05-05 06:16 37.66793 120.99045 160 ft 12 kts 42°
2026-05-05 06:16 37.66865 120.99128 160 ft 14 kts 42°
2026-05-05 06:17 37.66933 120.99205 160 ft 12 kts 42°
2026-05-05 06:17 37.66989 120.99268 160 ft 8 kts 37°
2026-05-05 06:17 37.67031 120.99254 160 ft 6 kts 316°
2026-05-05 06:17 37.67050 120.99226 160 ft 0 kts 312°
2026-05-05 06:20 37.67051 120.99226 160 ft 0 kts 312°
2026-05-05 06:25 37.67052 120.99224 160 ft 2 kts 312°
2026-05-05 06:26 37.67062 120.99210 160 ft 2 kts 312°
2026-05-05 06:26 37.67087 120.99175 161 ft 5 kts 311°
2026-05-05 06:26 37.67101 120.99150 161 ft 2 kts 298°
2026-05-05 06:26 37.67098 120.99124 162 ft 5 kts 242°
2026-05-05 06:27 37.67080 120.99100 162 ft 0 kts 222°
2026-05-05 06:27 37.67039 120.99052 162 ft 32 kts 222°
2026-05-05 06:27 37.66692 120.98655 161 ft 99 kts 222°
2026-05-05 06:28 37.66044 120.97914 162 ft 149 kts 222°
2026-05-05 06:28 37.65225 120.96970 546 ft 163 kts 221°
2026-05-05 06:28 37.64375 120.95976 1168 ft 170 kts 220°
2026-05-05 06:28 37.63507 120.94959 1936 ft 171 kts 220°
2026-05-05 06:29 37.62590 120.93894 2334 ft 189 kts 220°
2026-05-05 06:29 37.61565 120.92707 2698 ft 211 kts 221°
2026-05-05 06:29 37.60421 120.91379 3066 ft 235 kts 223°
2026-05-05 06:29 37.59188 120.89944 3779 ft 246 kts 223°
2026-05-05 06:30 37.57917 120.88470 4650 ft 251 kts 224°
2026-05-05 06:30 37.56615 120.86961 5444 ft 258 kts 224°
2026-05-05 06:30 37.55249 120.85460 6245 ft 265 kts 216°
2026-05-05 06:30 37.53472 120.84740 7018 ft 278 kts 185°
2026-05-05 06:31 37.51522 120.84957 7853 ft 285 kts 172°
2026-05-05 06:31 37.49576 120.85538 8662 ft 290 kts 168°
2026-05-05 06:31 37.47614 120.86206 9542 ft 293 kts 166°
2026-05-05 06:31 37.45627 120.86838 10242 ft 301 kts 167°
2026-05-05 06:32 37.43505 120.87430 10475 ft 324 kts 169°
2026-05-05 06:32 37.41211 120.87985 10653 ft 347 kts 171°
2026-05-05 06:32 37.38756 120.88517 10882 ft 366 kts 172°
2026-05-05 06:32 37.36212 120.89032 11489 ft 372 kts 172°
2026-05-05 06:33 37.33645 120.89537 12191 ft 375 kts 172°
2026-05-05 06:33 37.31056 120.90046 12894 ft 378 kts 172°
2026-05-05 06:33 37.28452 120.90558 13642 ft 379 kts 172°
2026-05-05 06:33 37.25835 120.91054 14275 ft 381 kts 174°
2026-05-05 06:34 37.23171 120.91082 14791 ft 386 kts 186°
2026-05-05 06:34 37.20537 120.90404 15332 ft 390 kts 198°
2026-05-05 06:34 37.18053 120.89010 15862 ft 394 kts 210°
2026-05-05 06:34 37.15831 120.86969 16321 ft 399 kts 220°
2026-05-05 06:35 37.13715 120.84715 16920 ft 400 kts 220°
2026-05-05 06:35 37.11570 120.82443 17373 ft 406 kts 220°
2026-05-05 06:35 37.09434 120.80187 17889 ft 409 kts 220°
2026-05-05 06:35 37.07247 120.77882 18362 ft 413 kts 220°
2026-05-05 06:36 37.05037 120.75556 18771 ft 417 kts 220°
2026-05-05 06:36 37.02806 120.73211 19183 ft 421 kts 220°
2026-05-05 06:36 37.00552 120.70850 19605 ft 424 kts 220°
2026-05-05 06:36 36.98277 120.68469 20016 ft 428 kts 220°
2026-05-05 06:37 36.95981 120.66067 20418 ft 432 kts 220°
2026-05-05 06:37 36.93543 120.63853 20859 ft 434 kts 211°
2026-05-05 06:37 36.90847 120.62150 21388 ft 434 kts 202°
2026-05-05 06:37 36.87982 120.60866 21648 ft 442 kts 199°
2026-05-05 06:38 36.85054 120.59620 21959 ft 447 kts 199°
2026-05-05 06:38 36.82094 120.58378 22341 ft 450 kts 199°
2026-05-05 06:38 36.79121 120.57137 22772 ft 452 kts 199°
2026-05-05 06:38 36.77136 120.56309 22951 ft 456 kts 199°
2026-05-05 06:39 36.73092 120.54618 23483 ft 459 kts 199°
2026-05-05 06:39 36.71092 120.53778 23757 ft 459 kts 199°
2026-05-05 06:39 36.68052 120.52499 24006 ft 463 kts 199°
2026-05-05 06:39 36.64988 120.51208 24291 ft 466 kts 199°
2026-05-05 06:40 36.61916 120.49912 24644 ft 467 kts 199°
2026-05-05 06:40 36.58832 120.48607 24971 ft 469 kts 199°
2026-05-05 06:40 36.54683 120.46882 25384 ft 471 kts 198°
2026-05-05 06:40 36.52613 120.46057 25582 ft 473 kts 198°
2026-05-05 06:41 36.49466 120.44832 25843 ft 475 kts 198°
2026-05-05 06:41 36.46298 120.43622 26123 ft 477 kts 197°
2026-05-05 06:41 36.43114 120.42410 26409 ft 479 kts 198°
2026-05-05 06:41 36.39923 120.41192 26681 ft 481 kts 198°
2026-05-05 06:42 36.36669 120.39944 26949 ft 484 kts 197°
2026-05-05 06:42 36.33420 120.39064 27185 ft 487 kts 188°
2026-05-05 06:42 36.30038 120.38846 27511 ft 487 kts 178°
2026-05-05 06:42 36.26680 120.39341 27891 ft 486 kts 167°
2026-05-05 06:43 36.23445 120.40522 28292 ft 484 kts 157°
2026-05-05 06:43 36.20413 120.42312 28677 ft 483 kts 150°
2026-05-05 06:43 36.17450 120.44271 29057 ft 482 kts 150°
2026-05-05 06:43 36.14457 120.46137 29440 ft 482 kts 156°
2026-05-05 06:44 36.11284 120.47497 29796 ft 483 kts 165°
2026-05-05 06:44 36.07983 120.48270 30012 ft 484 kts 174°
2026-05-05 06:44 36.04614 120.48539 30043 ft 486 kts 177°
2026-05-05 06:45 35.97866 120.49112 30040 ft 487 kts 171°
2026-05-05 06:45 35.91412 120.51536 30042 ft 486 kts 155°
2026-05-05 06:46 35.85243 120.54938 30038 ft 485 kts 155°
2026-05-05 06:46 35.79087 120.58318 30036 ft 484 kts 156°
2026-05-05 06:47 35.72934 120.61700 30029 ft 484 kts 155°
2026-05-05 06:47 35.66942 120.65482 30040 ft 484 kts 150°
2026-05-05 06:48 35.61102 120.69601 30039 ft 484 kts 150°
2026-05-05 06:48 35.55261 120.73699 30036 ft 483 kts 151°
2026-05-05 06:49 35.49374 120.77675 30039 ft 483 kts 152°
2026-05-05 06:49 35.43193 120.80868 30042 ft 482 kts 159°
2026-05-05 06:50 35.36966 120.83935 30040 ft 482 kts 158°
2026-05-05 06:50 35.30756 120.87029 30034 ft 481 kts 159°
2026-05-05 06:51 35.24552 120.90105 30033 ft 481 kts 159°
2026-05-05 06:51 35.18349 120.93168 30032 ft 481 kts 159°
2026-05-05 06:52 35.12145 120.96223 30054 ft 480 kts 159°
2026-05-05 06:52 35.05959 120.99296 30047 ft 480 kts 159°
2026-05-05 06:53 34.99785 121.02381 30050 ft 479 kts 159°
2026-05-05 06:53 34.93533 121.05486 30049 ft 490 kts 159°
2026-05-05 06:54 34.87197 121.08608 30055 ft 492 kts 159°
2026-05-05 06:54 34.80856 121.11727 30062 ft 491 kts 159°
2026-05-05 06:55 34.74527 121.14851 30058 ft 491 kts 159°
2026-05-05 06:55 34.68204 121.17981 30062 ft 491 kts 159°
2026-05-05 06:56 34.61916 121.21070 30061 ft 490 kts 159°
2026-05-05 06:56 34.55588 121.24163 30045 ft 490 kts 159°
2026-05-05 06:57 34.49262 121.27249 30055 ft 490 kts 160°
2026-05-05 06:57 34.42906 121.30357 30066 ft 489 kts 160°
2026-05-05 06:58 34.36599 121.33444 30065 ft 489 kts 160°
2026-05-05 06:58 34.30288 121.36522 30062 ft 489 kts 160°
2026-05-05 06:59 34.23976 121.39585 30067 ft 489 kts 160°
2026-05-05 06:59 34.17701 121.42626 30073 ft 489 kts 160°
2026-05-05 07:00 34.11386 121.45691 30071 ft 489 kts 160°
2026-05-05 07:00 34.05077 121.48747 30055 ft 489 kts 160°
2026-05-05 07:01 33.98766 121.51805 30067 ft 489 kts 160°
2026-05-05 07:01 33.92459 121.54846 30077 ft 488 kts 161°
2026-05-05 07:02 33.86149 121.57880 30080 ft 488 kts 161°
2026-05-05 07:02 33.79847 121.60918 30072 ft 488 kts 161°
2026-05-05 07:03 33.73540 121.63943 30093 ft 488 kts 161°
2026-05-05 07:03 33.67243 121.66975 30093 ft 488 kts 161°
2026-05-05 07:04 33.60960 121.70064 30095 ft 488 kts 160°
2026-05-05 07:04 33.54679 121.73156 30086 ft 488 kts 161°
2026-05-05 07:05 33.48401 121.76222 30090 ft 487 kts 161°
2026-05-05 07:05 33.42128 121.79283 30089 ft 487 kts 161°
2026-05-05 07:06 33.35856 121.82341 30090 ft 487 kts 161°
2026-05-05 07:06 33.29582 121.85394 30082 ft 487 kts 161°
2026-05-05 07:07 33.23310 121.88437 30091 ft 487 kts 161°
2026-05-05 07:07 33.17035 121.91482 30098 ft 487 kts 160°
2026-05-05 07:08 33.10760 121.94521 30097 ft 487 kts 161°
2026-05-05 07:08 33.04483 121.97547 30110 ft 487 kts 161°
2026-05-05 07:09 32.98206 122.00572 30101 ft 487 kts 160°
2026-05-05 07:09 32.91931 122.03596 30112 ft 486 kts 161°
2026-05-05 07:10 32.85653 122.06615 30110 ft 486 kts 160°
2026-05-05 07:10 32.79382 122.09631 30128 ft 486 kts 161°
2026-05-05 07:11 32.73166 122.12616 30129 ft 485 kts 161°
2026-05-05 07:11 32.66914 122.15610 30129 ft 484 kts 161°
2026-05-05 07:12 32.60670 122.18600 30125 ft 484 kts 161°
2026-05-05 07:12 32.54433 122.21585 30125 ft 483 kts 161°
2026-05-05 07:13 32.48199 122.24560 30108 ft 483 kts 161°
2026-05-05 07:13 32.41965 122.27523 30117 ft 483 kts 162°
2026-05-05 07:14 32.35733 122.30479 30123 ft 483 kts 161°
2026-05-05 07:14 32.29504 122.33440 30122 ft 482 kts 161°
2026-05-05 07:15 32.23276 122.36397 30106 ft 482 kts 163°
2026-05-05 07:15 32.17056 122.39332 30127 ft 481 kts 163°
2026-05-05 07:16 32.10849 122.42262 30138 ft 480 kts 163°
2026-05-05 07:16 32.04650 122.45190 30136 ft 479 kts 163°
2026-05-05 07:17 31.98459 122.48105 30135 ft 479 kts 163°
2026-05-05 07:17 31.92270 122.51016 30133 ft 479 kts 163°
2026-05-05 07:18 31.86081 122.53925 30141 ft 479 kts 163°
2026-05-05 07:18 31.79887 122.56840 30140 ft 479 kts 163°
2026-05-05 07:19 31.73675 122.59664 30140 ft 476 kts 169°
2026-05-05 07:19 31.70466 122.60440 30129 ft 467 kts 180°
2026-05-05 07:19 31.67255 122.60512 30141 ft 457 kts 190°
2026-05-05 07:20 31.61245 122.58659 30152 ft 442 kts 210°
2026-05-05 07:20 31.56181 122.54745 30152 ft 435 kts 220°
2026-05-05 07:21 31.51337 122.50501 30145 ft 435 kts 220°
2026-05-05 07:21 31.46473 122.46295 30144 ft 434 kts 218°
2026-05-05 07:22 31.41959 122.43641 30153 ft 441 kts 205°
2026-05-05 07:22 31.36219 122.41093 30161 ft 441 kts 206°
2026-05-05 07:23 31.30493 122.38538 30152 ft 440 kts 206°
2026-05-05 07:23 31.24776 122.35987 30149 ft 440 kts 206°
2026-05-05 07:24 31.19059 122.33445 30160 ft 440 kts 206°
2026-05-05 07:24 31.13323 122.30903 29842 ft 442 kts 205°
2026-05-05 07:24 31.10445 122.29627 29397 ft 443 kts 205°
2026-05-05 07:25 31.07557 122.28347 28924 ft 444 kts 205°
2026-05-05 07:25 31.04666 122.27068 28500 ft 445 kts 205°
2026-05-05 07:25 31.01766 122.25785 28077 ft 447 kts 205°
2026-05-05 07:25 30.98841 122.24530 27666 ft 450 kts 203°
2026-05-05 07:26 30.95852 122.23402 27248 ft 453 kts 201°
2026-05-05 07:26 30.92812 122.22381 26844 ft 456 kts 199°
2026-05-05 07:26 30.89737 122.21419 26446 ft 459 kts 199°
2026-05-05 07:26 30.86649 122.20465 26039 ft 460 kts 200°
2026-05-05 07:27 30.83675 122.19161 25656 ft 455 kts 209°
2026-05-05 07:27 30.80997 122.17316 25274 ft 453 kts 218°
2026-05-05 07:27 30.78601 122.14947 24897 ft 452 kts 227°
2026-05-05 07:27 30.76547 122.12117 24522 ft 453 kts 236°
2026-05-05 07:28 30.74843 122.09083 24150 ft 454 kts 238°
2026-05-05 07:28 30.73127 122.05998 23801 ft 455 kts 238°
2026-05-05 07:28 30.71392 122.02914 23467 ft 456 kts 237°
2026-05-05 07:28 30.69648 121.99832 23122 ft 456 kts 237°
2026-05-05 07:29 30.67912 121.96770 22809 ft 452 kts 237°
2026-05-05 07:29 30.66188 121.93722 22495 ft 450 kts 237°
2026-05-05 07:29 30.64479 121.90687 22174 ft 448 kts 237°
2026-05-05 07:29 30.62775 121.87658 21864 ft 447 kts 238°
2026-05-05 07:30 30.61077 121.84644 21551 ft 446 kts 238°
2026-05-05 07:30 30.57692 121.78641 20942 ft 444 kts 238°
2026-05-05 07:30 30.56001 121.75641 20652 ft 444 kts 238°
2026-05-05 07:31 30.54312 121.72645 20352 ft 443 kts 238°
2026-05-05 07:31 30.52624 121.69657 20049 ft 442 kts 238°
2026-05-05 07:31 30.50943 121.66690 19763 ft 439 kts 238°
2026-05-05 07:31 30.49268 121.63731 19475 ft 438 kts 238°
2026-05-05 07:32 30.47605 121.60801 19179 ft 432 kts 238°
2026-05-05 07:32 30.45961 121.57912 18888 ft 428 kts 238°
2026-05-05 07:32 30.44326 121.55036 18588 ft 426 kts 238°
2026-05-05 07:32 30.42699 121.52170 18279 ft 425 kts 238°
2026-05-05 07:33 30.41075 121.49308 17943 ft 425 kts 238°
2026-05-05 07:33 30.39474 121.46489 17599 ft 424 kts 238°
2026-05-05 07:33 30.37850 121.43644 17267 ft 423 kts 238°
2026-05-05 07:33 30.36228 121.40811 16922 ft 421 kts 238°
2026-05-05 07:34 30.34612 121.37988 16594 ft 420 kts 238°
2026-05-05 07:34 30.32996 121.35171 16271 ft 419 kts 238°
2026-05-05 07:34 30.31388 121.32366 15942 ft 418 kts 238°
2026-05-05 07:34 30.29788 121.29569 15613 ft 416 kts 238°
2026-05-05 07:35 30.28198 121.26785 15302 ft 414 kts 238°
2026-05-05 07:35 30.26610 121.24003 14987 ft 412 kts 238°
2026-05-05 07:35 30.25046 121.21289 14672 ft 399 kts 237°
2026-05-05 07:35 30.23470 121.18702 14364 ft 388 kts 236°
2026-05-05 07:36 30.21889 121.16223 14061 ft 378 kts 234°
2026-05-05 07:36 30.20325 121.13826 13753 ft 369 kts 234°
2026-05-05 07:36 30.18788 121.11478 13411 ft 364 kts 235°
2026-05-05 07:36 30.17276 121.09158 13072 ft 360 kts 235°
2026-05-05 07:37 30.15784 121.06848 12732 ft 358 kts 234°
2026-05-05 07:37 30.14303 121.04540 12405 ft 357 kts 234°
2026-05-05 07:37 30.12840 121.02247 12076 ft 354 kts 235°
2026-05-05 07:37 30.11378 120.99959 11751 ft 352 kts 234°
2026-05-05 07:38 30.09942 120.97717 11461 ft 342 kts 234°
2026-05-05 07:38 30.08545 120.95539 11190 ft 333 kts 235°
2026-05-05 07:38 30.07183 120.93420 10939 ft 324 kts 234°
2026-05-05 07:38 30.05855 120.91353 10667 ft 317 kts 234°
2026-05-05 07:39 30.04555 120.89329 10399 ft 311 kts 234°
2026-05-05 07:39 30.03526 120.87178 10138 ft 303 kts 251°
2026-05-05 07:39 30.03169 120.84815 9877 ft 298 kts 270°
2026-05-05 07:39 30.03490 120.82484 9591 ft 293 kts 288°
2026-05-05 07:40 30.04244 120.80321 9304 ft 288 kts 291°
2026-05-05 07:40 30.05005 120.78194 9020 ft 286 kts 291°
2026-05-05 07:40 30.05759 120.76075 8750 ft 285 kts 291°
2026-05-05 07:40 30.06509 120.73962 8498 ft 284 kts 291°
2026-05-05 07:41 30.07257 120.71856 8243 ft 283 kts 290°
2026-05-05 07:41 30.08002 120.69751 7993 ft 283 kts 290°
2026-05-05 07:41 30.08744 120.67649 7745 ft 283 kts 290°
2026-05-05 07:41 30.09486 120.65546 7497 ft 282 kts 290°
2026-05-05 07:42 30.10227 120.63448 7253 ft 282 kts 289°
2026-05-05 07:42 30.10968 120.61353 7004 ft 282 kts 291°
2026-05-05 07:42 30.11706 120.59260 6768 ft 281 kts 290°
2026-05-05 07:42 30.12438 120.57184 6526 ft 276 kts 290°
2026-05-05 07:43 30.13152 120.55158 6276 ft 269 kts 290°
2026-05-05 07:43 30.13846 120.53178 6023 ft 263 kts 290°
2026-05-05 07:43 30.14526 120.51236 5769 ft 259 kts 289°
2026-05-05 07:43 30.15201 120.49316 5522 ft 257 kts 289°
2026-05-05 07:44 30.15643 120.47338 5273 ft 253 kts 271°
2026-05-05 07:44 30.15521 120.45334 5037 ft 249 kts 253°
2026-05-05 07:44 30.14885 120.43501 4927 ft 246 kts 240°
2026-05-05 07:44 30.14097 120.41749 4928 ft 246 kts 240°
2026-05-05 07:45 30.13310 120.39989 4928 ft 246 kts 240°
2026-05-05 07:45 30.12528 120.38235 4926 ft 246 kts 240°
2026-05-05 07:45 30.11754 120.36496 4904 ft 247 kts 240°
2026-05-05 07:45 30.10964 120.34719 4819 ft 242 kts 240°
2026-05-05 07:46 30.10215 120.33032 4754 ft 230 kts 240°
2026-05-05 07:46 30.09500 120.31423 4671 ft 220 kts 241°
2026-05-05 07:46 30.08811 120.29875 4593 ft 215 kts 240°
2026-05-05 07:46 30.08134 120.28359 4516 ft 209 kts 239°
2026-05-05 07:47 30.07485 120.26901 4383 ft 204 kts 240°
2026-05-05 07:47 30.06840 120.25454 4170 ft 196 kts 240°
2026-05-05 07:47 30.06224 120.24071 3913 ft 192 kts 240°
2026-05-05 07:47 30.05625 120.22727 3677 ft 190 kts 240°
2026-05-05 07:48 30.05273 120.21267 3525 ft 192 kts 264°
2026-05-05 07:48 30.05492 120.19734 3410 ft 197 kts 290°
2026-05-05 07:48 30.06267 120.18438 3293 ft 199 kts 317°
2026-05-05 07:48 30.07448 120.17601 3160 ft 200 kts 332°
2026-05-05 07:49 30.08695 120.16874 3079 ft 200 kts 332°
2026-05-05 07:49 30.09935 120.16142 3004 ft 200 kts 332°
2026-05-05 07:49 30.11254 120.15670 3013 ft 201 kts
2026-05-05 07:49 30.12563 120.16139 3011 ft 199 kts 39°
2026-05-05 07:50 30.13400 120.17389 3036 ft 195 kts 65°
2026-05-05 07:50 30.14007 120.18764 3015 ft 194 kts 65°
2026-05-05 07:50 30.14630 120.20178 3026 ft 195 kts 64°
2026-05-05 07:50 30.15249 120.21566 3011 ft 193 kts 65°
2026-05-05 07:51 30.15859 120.22937 3035 ft 195 kts 66°
2026-05-05 07:51 30.16489 120.24352 2993 ft 196 kts 65°
2026-05-05 07:51 30.17102 120.25726 2804 ft 194 kts 66°
2026-05-05 07:51 30.17720 120.27112 2575 ft 193 kts 65°
2026-05-05 07:52 30.18328 120.28478 2330 ft 190 kts 66°
2026-05-05 07:52 30.18926 120.29820 2088 ft 184 kts 64°
2026-05-05 07:52 30.19493 120.31093 1862 ft 172 kts 67°
2026-05-05 07:52 30.20016 120.32267 1655 ft 158 kts 65°
2026-05-05 07:53 30.20505 120.33366 1432 ft 151 kts 68°
2026-05-05 07:53 30.20982 120.34440 1253 ft 149 kts 67°
2026-05-05 07:53 30.21454 120.35503 1055 ft 148 kts 66°
2026-05-05 07:53 30.21926 120.36566 870 ft 147 kts 67°
2026-05-05 07:54 30.22392 120.37607 675 ft 146 kts 67°
2026-05-05 07:54 30.22842 120.38640 499 ft 144 kts 62°
2026-05-05 07:54 30.23321 120.39653 324 ft 141 kts 67°
2026-05-05 07:54 30.23745 120.40678 117 ft 141 kts 66°
2026-05-05 07:55 30.24191 120.41655 36 ft 128 kts 64°
2026-05-05 07:55 30.24518 120.42406 30 ft 80 kts 63°
2026-05-05 07:55 30.24687 120.42793 30 ft 34 kts 66°
2026-05-05 07:55 30.24723 120.43029 33 ft 23 kts 91°
2026-05-05 07:56 30.24718 120.43149 32 ft 10 kts 112°
2026-05-05 07:56 30.24666 120.43147 32 ft 8 kts 217°
2026-05-05 07:56 30.24637 120.43104 32 ft 6 kts 238°
2026-05-05 07:56 30.24617 120.43065 32 ft 5 kts 241°
2026-05-05 07:57 30.24599 120.43023 31 ft 9 kts 244°
2026-05-05 07:57 30.24551 120.42915 32 ft 19 kts 243°
2026-05-05 07:57 30.24489 120.42777 32 ft 18 kts 240°
2026-05-05 07:57 30.24380 120.42783 32 ft 16 kts 154°
2026-05-05 07:58 30.24293 120.42793 32 ft 10 kts 188°
2026-05-05 07:58 30.24233 120.42817 32 ft 9 kts 153°
2026-05-05 07:58 30.24182 120.42848 32 ft 8 kts 153°
2026-05-05 07:58 30.24141 120.42833 32 ft 6 kts 221°
2026-05-05 07:59 30.24127 120.42813 32 ft 2 kts 233°
2026-05-05 07:59 30.24123 120.42807 32 ft 1 kts 233°
2026-05-05 07:59 30.24122 120.42804 32 ft 1 kts 234°
2026-05-05 07:59 30.24121 120.42803 32 ft 0 kts 234°